Left ArrowRight Arrow

44.31136, -96.79839

Hourly Observations for June 15, 2024

Temp ( °F °C ) Dew Point ( °F °C ) Humidity (%) Winds ( mph kmh ) Pressure ( in mb ) Visibility ( mi km ) Precip ( " mm )
12:56 am 00:56 Cloudy with Light Rain 67 19.4 55 12.8 66 66 SE 13 20 29.97 1015 1 1 0.01 0.13
1:00 am 01:00 Cloudy with Light Rain 68 20 55 13 64 64 SE 14 22 29.92 1013 4 6 0.01 0.13
1:56 am 01:56 Mostly Cloudy with Light Rain 69 20.6 52 11.1 54 54 SE 15 24 29.98 1015 10 16 0.01 0.13
2:56 am 02:56 Cloudy with Light Rain 63 17.2 57 13.9 81 81 SE 16 26 29.97 1015 10 16 0.02 0.51
3:56 am 03:56 Cloudy with Light Rain 63 17.2 56 13.3 78 78 SE 10 17 29.94 1014 10 16 0.01 0.25
4:56 am 04:56 Mostly Cloudy with Light Rain 64 17.8 55 12.8 73 73 SE 18 30 29.93 1014 10 16 0.01 0.13
5:56 am 05:56 Cloudy with Light Rain 63 17.2 55 12.8 75 75 SSE 21 33 29.93 1013 10 16 0.03 0.76
6:56 am 06:56 Cloudy with Light Rain 62 16.7 56 13.3 80 80 SSE 12 19 29.93 1013 10 16 0.02 0.51
7:56 am 07:56 Cloudy with Light Rain 62 16.7 58 14.4 86 86 SSE 13 20 29.92 1013 10 16 0.02 0.51
8:56 am 08:56 Cloudy with Light Rain 62 16.7 58 14.4 86 86 SSE 16 26 29.90 1013 10 16 0.01 0.13
9:11 am 09:11 Cloudy with Light Rain 61 16 59 15 94 94 SSE 14 22 29.86 1011 10 16 0.01 0.13
9:27 am 09:27 Cloudy with Light Rain 63 17 61 16 94 94 SSE 14 22 29.85 1011 10 16 0.01 0.13
9:56 am 09:56 Cloudy with Light Rain 62 16.7 60 15.6 93 93 SSE 16 26 29.88 1012 10 16 0.01 0.13
10:03 am 10:03 Cloudy with Light Rain 63 17 61 16 94 94 SSE 17 28 29.85 1011 10 16 0.01 0.13
10:18 am 10:18 Cloudy with Light Rain 63 17 61 16 94 94 SSE 14 22 29.84 1010 10 16 0.01 0.25
10:47 am 10:47 Cloudy with Light Rain 63 17 61 16 94 94 SSE 9 15 29.84 1010 10 16 0.02 0.51
10:56 am 10:56 Cloudy with Light Rain 62 16.7 60 15.6 93 93 SE 13 20 29.87 1012 10 16 0.02 0.51
11:20 am 11:20 Cloudy with Light Rain 63 17 61 16 94 94 SE 13 20 29.82 1010 10 16 0.01 0.25
11:45 am 11:45 Cloudy with Light Rain 63 17 63 17 100 100 SE 14 22 29.81 1009 10 16 0.02 0.51
11:56 am 11:56 Cloudy with Light Rain 64 17.8 62 16.7 93 93 SSE 14 22 29.85 1011 10 16 0.02 0.51
12:07 pm 12:07 Cloudy with Light Rain 64 18 63 17 94 94 SSE 13 20 29.80 1009 10 16 0.01 0.13
12:56 pm 12:56 Cloudy with Light Rain 66 18.9 64 17.8 93 93 SSE 13 20 29.83 1010 10 16 0.01 0.25
1:41 pm 13:41 Cloudy with Light Rain 66 19 64 18 94 94 S 13 20 29.77 1008 10 16 0.01 0.13
1:53 pm 13:53 Cloudy 66 19 64 18 94 94 S 12 19 29.77 1008 10 16 0.01 0.13
1:56 pm 13:56 Cloudy 67 19.4 65 18.3 93 93 S 12 19 29.81 1010 10 16 0.01 0.13
2:29 pm 14:29 Cloudy with Light Rain 68 20 66 19 94 94 S 10 17 29.75 1007 10 16 0.01 0.13
2:56 pm 14:56 Cloudy with Light Rain 69 20.6 66 18.9 90 90 S 10 17 29.80 1009 10 16 0.01 0.13
3:56 pm 15:56 Cloudy with Light Rain 71 21.7 68 20 90 90 SSE 12 19 29.78 1008 10 16 0.01 0.13
4:04 pm 16:04 Cloudy 72 22 68 20 88 88 SSE 15 24 29.70 1006 10 16 0.01 0.13
4:26 pm 16:26 Cloudy 73 23 68 20 83 83 S 16 26 29.68 1005 10 16 0.01 0.13
4:49 pm 16:49 Mostly Cloudy 73 23 66 19 78 78 S 14 22 29.67 1005 10 16 0.01 0.13
4:56 pm 16:56 Mostly Cloudy 73 22.8 67 19.4 81 81 SSE 14 22 29.75 1007 10 16 0.01 0.13
5:56 pm 17:56 Cloudy 73 22.8 67 19.4 81 81 SSE 10 17 29.73 1007 10 16 0.00 0.00
6:19 pm 18:19 Mostly Cloudy 73 23 68 20 83 83 SSE 15 24 29.64 1004 7 11 0.00 0.00
6:34 pm 18:34 Mostly Sunny 73 23 68 20 83 83 S 15 24 29.64 1004 10 16 0.00 0.00
6:56 pm 18:56 Mostly Sunny 73 22.8 67 19.4 81 81 S 12 19 29.70 1006 10 16 0.00 0.00
7:39 pm 19:39 Cloudy 73 23 68 20 83 83 SSE 8 13 29.62 1003 10 16 0.00 0.00
7:56 pm 19:56 Mostly Cloudy 73 22.8 68 20 84 84 SSE 13 20 29.68 1005 10 16 0.00 0.00
8:56 pm 20:56 Mostly Cloudy 72 22.2 68 20 87 87 SSE 9 15 29.68 1005 10 16 0.00 0.00
9:08 pm 21:08 Mostly Cloudy 72 22 68 20 88 88 SSE 9 15 29.60 1002 10 16 0.00 0.00
9:40 pm 21:40 Partly Cloudy 70 21 66 19 88 88 SE 8 13 29.60 1003 10 16 0.00 0.00
9:56 pm 21:56 Mostly Cloudy 70 21.1 68 20 93 93 SE 8 13 29.67 1005 10 16 0.00 0.00
10:18 pm 22:18 Mostly Clear 72 22 68 20 88 88 SSE 8 13 29.60 1002 10 16 0.00 0.00
10:56 pm 22:56 Clear 71 21.7 68 20 90 90 SSE 10 17 29.65 1004 10 16 0.00 0.00
11:56 pm 23:56 Clear 70 21.1 68 20 93 93 S 13 20 29.67 1005 10 16 0.00 0.00

Powered by Vaisala Xweather